Regional Weather Roundup
Issued by NWS Sioux Falls, SD

Home | Current Version | Previous Version | Graphics & Text | Print | Product List | Glossary On
Versions: 1 2 3 4 5 6 7 8 9 10 11 12 13 14 15 16 17 18 19 20 21 22 23 24 25 26 27 28 29 30 31 32 33 34 35 36 37 38 39 40 41 42 43 44 45 46 47 48 49 50
000
ASUS43 KFSD 231110
RWRFSD

WEATHER ROUNDUP FOR SE SOUTH DAKOTA/SW MINNESOTA/NW IOWA
NATIONAL WEATHER SERVICE SIOUX FALLS SD
600 AM CDT MON OCT 23 2017

NOTE: "FAIR" INDICATES FEW OR NO CLOUDS BELOW 12,000 FEET WITH NO
SIGNIFICANT WEATHER AND OR OBSTRUCTIONS TO VISIBILITY.


SDZ038>040-050-052>070-231200-
SOUTHEAST SOUTH DAKOTA

CITY           SKY/WX    TMP DP  RH WIND       PRES   REMARKS
BROOKINGS      CLOUDY    52  41  66 NW18      29.87R
CHAMBERLAIN    PTCLDY    54  38  54 NW17G25   30.00R
HURON          CLOUDY    53  38  56 NW23G30   29.91R
MADISON        FAIR      52  39  62 NW22G28   29.90R
MITCHELL       CLOUDY    56  40  55 NW20      29.94R
SIOUX FALLS    CLOUDY    57  42  57 NW16G26   29.89R
WINNER         FAIR      53  34  48 NW15G26   30.04R
YANKTON        PTCLDY    58  39  49 NW16G25   29.94R
$$

MNZ071-072-080-081-089-090-097-098-231200-
SOUTHWEST MINNESOTA

CITY           SKY/WX    TMP DP  RH WIND       PRES   REMARKS
FAIRMONT       CLEAR     43  36  76 SW8       29.81F
JACKSON        PTCLDY    45  34  65 W9        29.83R
LUVERNE        CLOUDY    46  36  66 NW10      29.87R
MARSHALL       MOCLDY    54  41  61 NW18      29.83R
MONTEVIDEO     PTCLDY    54  43  66 NW10G18   29.79R
PIPESTONE      CLOUDY    52  39  62 NW14      29.87R
REDWOOD FALLS  PTCLDY    51  35  54 W12       29.79R
TRACY          MOCLDY    55  41  59 W15G22    29.83R
WORTHINGTON    CLOUDY    48  35  60 W14       29.84R
$$

IAZ001>003-012>014-020>022-031-032-NEZ013-014-SDZ071-231200-
NORTHWEST IOWA

CITY           SKY/WX    TMP DP  RH WIND       PRES   REMARKS
CHEROKEE       PTCLDY    47  34  60 SW3       29.86R
DENISON        PTCLDY    46  36  66 SW6       29.88R
ESTHERVILLE    PTCLDY    38  36  92 SW6       29.82S
LE MARS        PTCLDY    50  36  57 NW7       29.89R
ORANGE CITY    CLOUDY    48  37  66 NW12      29.87R
SHELDON        CLOUDY    45  36  70 W10       29.85R
SIOUX CITY     PTCLDY    44  40  85 NW9       29.90R
SPENCER        PTCLDY    43  34  70 W7        29.83R
STORM LAKE     PTCLDY    50  34  53 W7G15     29.85R
$$

ABBREVIATIONS USED IN REMARKS
   TC - TEMPERATURE IN CELSIUS
  WCI - WIND CHILL INDEX
   HX - HEAT INDEX
  VSB - VISIBILITY




USA.gov is the U.S. government's official web portal to all federal, state and local government web resources and services.